Probability
0 0 0 0 0 0 0 0 0 0 0 0 0 0 0 0 0 0 0 0 0 0 0 0 0 0 0 0 0 0 0 0 0 0 0 0 0 0 0 0 0 0 0 0
0 0 0 0 0 0 0 0 0 0 0 0 0 0 0 0 0 0 0 0 0 0 0 0 0 0 0 0 0 0 0 0 0 0 0 0 0 0 0 0 0 0 0 0
0 0 0 0 0 0 0 0 0 0 0 0 0 0 0 0 0 0 0 0 0 0 0 0 0 0 0 0 0 0 0 0 0 0 0 0 0 0 0 0 0 0 0 0
0 0 0 0 0 0 0 0 0 0 0 0 0 0 0 0 0 0 0 0 0 0 0 0 0 0 0 0 0 0 0 0 0 0 0 0 0 0 0 0 0 0 0 0
0 0 0 0 0 0 0 0 0 0 0 0 0 0 0 0 0 0 0 0 0 0 0 0 0 0 0 0 0 0 0 0 0 0 0 0 0 0 0 0 0 0 0 0
0 0 0 0 0 0 0 0 0 0 0 0 0 0 0 0 0 0 0 0 0 0 0 0 0 0 0 0 0 0 0 0 0 0 0 0 0 0 0 0 0 0 0 0
0 0 0 0 0 0 0 0 0 0 0 0 0 0 0 0 0 0 0 0 0 0 0 0 0 0 0 0 0 0 0 0 0 0 0 0 0 0 0 0 0 0 0 0
0 0 0 0 0 0 0 0 0 0 0 0 0 0 0 0 0 0 0 0 0 0 0 0 0 0 0 0 0 0 0 0 0 0 0 0 0 0 0 0 0 0 0 0
0 0 0 0 0 0 0 0 0 0 0 0 0 0 0 0 0 0 0 0 0 0 0 0 0 0 0 0 0 0 0 0 0 0 0 0 0 0 0 0 0 0 0 0
0 0 0 0 0 0 0 0 0 0 0 0 0 0 0 0 0 0 0 0 0 0 0 0 0 0 0 0 0 0 0 0 0 0 0 0 0 0 0 0 0 0 0 0
0 0 0 0 0 0 0 0 0 0 0 0 0 0 0 0 0 0 0 0 0 0 0 0 0 0 0 0 0 0 0 0 0 0 0 0 0 0 0 0 0 0 0 0
0 0 0 0 0 0 0 0 0 0 0 0 0 0 0 0 0 0 0 0 0 0 0 0 0 0 0 0 0 0 0 0 0 0 0 0 0 0 0 0 0 0 0 0
0 0 0 0 0 0 0 0 0 0 0 0 0 0 0 0 0 0 0 0 0 0 0 0 0 0 0 0 0 0 0 0 0 0 0 0 0 0 0 0 0 0 0 0
0 0 0 0 0 0 0 0 0 0 0 0 0 0 0 0 0 0 0 0 0 0 0 0 0 0 0 0 0 0 0 0 0 0 0 0 0 0 0 0 0 0 0 0
0 0 0 0 0 0 0 0 0 0 0 0 0 0 0 0 0 0 0 0 0 0 0 0 0 0 0 0 0 0 0 0 0 0 0 0 0 0 0 0 0 0 0 0
0 0 0 0 0 0 0 0 0 0 0 0 0 0 0 0 0 0 0 0 0 0 0 0 0 0 0 0 0 0 0 0 0 0 0 0 0 0 0 0 0 0 0 0
0 0 0 0 0 0 0 0 0 0 0 0 0 0 0 0 0 0 0 0 0 0 0 0 0 0 0 0 0 0 0 0 0 0 0 0 0 0 0 0 0 0 0 0
0 0 0 0 0 0 0 0 0 0 0 0 0 0 0 0 0 0 0 0 0 0 0 0 0 0 0 0 0 0 0 0 0 0 0 0 0 0 0 0 0 0 0 0
0 0 0 0 0 0 0 0 0 0 0 0 0 0 0 0 0 0 0 0 0 0 0 0 0 0 0 0 0 0 0 0 0 0 0 0 0 0 0 0 0 0 0 0
0 0 0 0 0 0 0 0 0 0 0 0 0 0 0 0 0 0 0 0 0 0 0 0 0 0 0 0 0 0 0 0 0 0 0 0 0 0 0 0 0 0 0 0
0 0 0 0 0 0 0 0 0 0 0 0 0 0 0 0 0 0 0 0 0 0 0 0 0 0 0 0 0 0 0 0 0 0 0 0 0 0 0 0 0 0 0 0
0 0 0 0 0 0 0 0 0 0 0 0 0 0 0 0 0 0 0 0 0 0 0 0 0 0 0 0 0 0 0 0 0 0 0 0 0 0 0 0 0 0 0 0
0 0 0 0 0 0 0 0 0 0 0 0 0 0 0 0 0 0 0 0 0 0 0 0 0 0 0 0 0 0 0 0 0 0 0 0 0 0 0 0 0 0 0 0
0 0 0 0 0 0 0 0 0 0 0 0 0 0 0 0 0 0 0 0 0 0 0 0 0 0 0 0 0 0 0 0 0 0 0 0 0 0 0 0 0 0 0 0
0 0 0 0 0 0 0 0 0 0 0 0 0 0 0 0 0 0 0 0 0 0 0 0 0 0 0 0 0 0 0 0 0 0 0 0 0 0 0 0 0 0 0 0
0 0 0 0 0 0 0 0 0 0 0 0 0 0 0 0 0 0 0 0 0 0 0 0 0 0 0 0 0 0 0 0 0 0 0 0 0 0 0 0 0 0 0 0
Height
5754 5754 5753 5752 5751 5750 5750 5749 5749 5748 5747 5746 5745 5745 5744 5743 5742 5740 5739 5737 5736 5734 5732 5730 5728 5726 5724 5723 5721 5719 5718 5717 5715 5714 5714 5713 5712 5711 5710 5709 5709 5708 5707 5706
5748 5748 5747 5745 5744 5743 5742 5742 5741 5740 5739 5738 5737 5737 5736 5734 5733 5732 5730 5728 5727 5725 5723 5721 5718 5716 5714 5712 5710 5709 5707 5705 5704 5702 5701 5700 5700 5699 5698 5696 5696 5695 5694 5693
5741 5741 5739 5738 5737 5736 5735 5734 5733 5732 5731 5729 5728 5728 5728 5726 5724 5723 5721 5719 5717 5715 5713 5710 5708 5706 5704 5702 5699 5698 5696 5694 5692 5690 5689 5687 5686 5685 5685 5684 5682 5681 5680 5679
5733 5733 5732 5731 5730 5728 5727 5726 5725 5723 5722 5720 5720 5717 5720 5718 5715 5713 5711 5709 5706 5704 5702 5699 5697 5695 5693 5690 5688 5686 5684 5681 5679 5677 5675 5674 5673 5672 5671 5669 5668 5667 5665 5664
5726 5725 5724 5723 5722 5720 5719 5718 5716 5714 5712 5711 5710 5707 5710 5708 5706 5704 5701 5698 5696 5693 5691 5688 5686 5684 5681 5679 5676 5674 5671 5669 5667 5664 5662 5661 5659 5658 5656 5655 5654 5652 5651 5650
5718 5717 5715 5714 5713 5711 5710 5709 5707 5704 5702 5701 5701 5698 5697 5697 5696 5693 5690 5687 5685 5682 5680 5677 5674 5672 5669 5667 5664 5662 5659 5657 5654 5652 5650 5647 5646 5644 5642 5641 5639 5638 5636 5635
5710 5709 5707 5706 5704 5703 5702 5700 5697 5694 5692 5691 5690 5687 5687 5686 5684 5682 5679 5677 5674 5671 5669 5666 5663 5660 5657 5655 5652 5650 5647 5645 5642 5639 5637 5634 5632 5630 5628 5626 5625 5623 5622 5620
5700 5700 5699 5697 5695 5694 5692 5690 5688 5685 5682 5681 5679 5676 5678 5676 5673 5670 5668 5666 5663 5660 5657 5654 5651 5648 5646 5643 5640 5637 5635 5632 5630 5627 5624 5621 5619 5616 5614 5612 5610 5608 5607 5606
5691 5691 5689 5688 5686 5684 5682 5680 5678 5674 5670 5668 5667 5666 5666 5665 5661 5659 5656 5654 5651 5648 5646 5643 5640 5637 5634 5631 5628 5625 5623 5620 5617 5614 5611 5609 5606 5603 5600 5598 5595 5593 5592 5591
5681 5680 5680 5678 5676 5674 5672 5670 5667 5663 5659 5656 5656 5656 5655 5653 5650 5648 5645 5642 5639 5636 5634 5631 5628 5625 5622 5619 5616 5613 5610 5608 5605 5602 5599 5595 5592 5589 5586 5584 5581 5579 5577 5576
5671 5670 5670 5668 5666 5664 5662 5660 5656 5653 5650 5647 5644 5647 5644 5641 5638 5635 5633 5630 5627 5624 5621 5619 5616 5613 5610 5607 5604 5601 5598 5595 5592 5589 5586 5582 5579 5576 5573 5570 5567 5565 5563 5561
5661 5659 5658 5658 5656 5653 5651 5649 5647 5644 5641 5637 5633 5637 5633 5630 5626 5623 5621 5618 5615 5612 5609 5606 5604 5601 5598 5595 5592 5588 5586 5583 5579 5576 5573 5569 5565 5562 5559 5556 5553 5550 5548 5546
5651 5649 5647 5646 5647 5644 5641 5639 5636 5633 5630 5627 5624 5627 5622 5618 5615 5612 5609 5606 5603 5600 5597 5595 5592 5589 5586 5582 5579 5576 5573 5569 5566 5563 5559 5555 5552 5548 5545 5541 5538 5535 5533 5532
5640 5639 5638 5637 5635 5632 5631 5629 5626 5622 5619 5617 5615 5615 5612 5607 5603 5600 5597 5594 5591 5588 5586 5583 5580 5577 5573 5570 5567 5563 5560 5556 5553 5549 5545 5541 5537 5534 5530 5527 5523 5521 5518 5517
5629 5629 5628 5626 5624 5621 5620 5618 5615 5612 5609 5606 5605 5603 5601 5596 5592 5589 5585 5582 5580 5577 5574 5571 5568 5565 5561 5558 5555 5551 5547 5543 5539 5535 5531 5527 5523 5519 5516 5512 5509 5506 5504 5503
5619 5618 5617 5615 5613 5611 5609 5608 5605 5602 5599 5596 5594 5593 5590 5585 5581 5578 5574 5572 5569 5566 5563 5560 5556 5553 5549 5546 5542 5538 5534 5530 5526 5522 5518 5513 5509 5505 5502 5498 5495 5493 5490 5489
5609 5607 5606 5604 5603 5600 5599 5599 5595 5593 5590 5587 5583 5583 5578 5575 5571 5567 5564 5561 5558 5554 5551 5548 5544 5541 5537 5533 5530 5526 5521 5517 5513 5508 5504 5500 5496 5492 5488 5485 5482 5480 5477 5475
5599 5597 5594 5593 5592 5589 5593 5589 5586 5582 5580 5577 5573 5570 5567 5564 5560 5556 5553 5550 5546 5543 5539 5536 5532 5529 5525 5521 5517 5513 5508 5504 5500 5496 5491 5487 5483 5479 5475 5472 5469 5466 5464 5462
5590 5587 5584 5582 5580 5579 5581 5578 5575 5572 5570 5567 5563 5560 5556 5553 5549 5546 5542 5538 5534 5531 5527 5524 5520 5516 5512 5508 5504 5500 5496 5491 5487 5483 5479 5475 5471 5467 5463 5460 5457 5454 5452 5449
5580 5578 5576 5572 5569 5568 5571 5568 5563 5561 5559 5557 5552 5549 5545 5542 5539 5537 5531 5527 5523 5519 5516 5512 5508 5504 5500 5496 5492 5488 5483 5479 5475 5471 5467 5463 5459 5455 5451 5448 5445 5442 5439 5437
5571 5568 5566 5563 5559 5559 5559 5556 5553 5551 5550 5545 5541 5538 5534 5531 5527 5524 5520 5516 5512 5508 5504 5500 5496 5492 5488 5484 5479 5475 5471 5468 5463 5459 5455 5451 5447 5443 5440 5436 5433 5430 5428 5426
5560 5558 5556 5553 5550 5552 5549 5545 5543 5540 5537 5533 5530 5526 5523 5519 5515 5512 5508 5504 5500 5496 5492 5488 5484 5480 5476 5471 5467 5464 5460 5456 5452 5448 5444 5440 5436 5432 5428 5425 5422 5419 5417 5415
5551 5550 5546 5545 5544 5541 5537 5534 5531 5529 5526 5522 5519 5515 5512 5508 5504 5500 5497 5492 5488 5484 5480 5476 5472 5468 5464 5460 5455 5452 5448 5444 5441 5437 5433 5429 5425 5421 5418 5414 5411 5409 5407 5405
5541 5539 5537 5535 5533 5530 5527 5523 5521 5517 5514 5511 5508 5504 5500 5497 5493 5489 5485 5481 5477 5473 5469 5465 5461 5457 5453 5449 5444 5440 5437 5433 5430 5426 5423 5419 5415 5411 5407 5404 5401 5399 5397 5395
5531 5529 5527 5525 5523 5519 5516 5513 5510 5507 5503 5500 5497 5493 5489 5485 5482 5478 5474 5470 5466 5462 5457 5453 5449 5446 5442 5438 5434 5430 5426 5423 5420 5416 5413 5409 5406 5402 5398 5395 5392 5390 5388 5386
5522 5520 5517 5515 5512 5509 5506 5503 5500 5496 5493 5489 5486 5482 5478 5474 5471 5467 5462 5459 5455 5451 5447 5443 5439 5435 5431 5428 5424 5420 5417 5413 5410 5406 5403 5399 5396 5393 5389 5386 5383 5380 5378 5376
Wind_Speed
26 27 27 27 28 29 29 30 30 30 31 31 32 32 32 33 33 34 35 35 36 36 37 38 39 40 40 41 41 42 43 43 43 43 44 44 44 44 44 44 44 44 44 45
28 28 28 28 29 29 30 31 31 32 32 33 33 33 33 34 35 35 36 37 38 39 40 40 40 41 42 42 43 43 44 45 45 45 45 46 46 46 47 46 46 46 46 46
29 28 29 29 30 30 31 32 32 33 34 35 35 34 34 35 36 37 38 39 40 41 41 41 42 42 43 43 44 44 45 46 47 47 47 48 48 48 48 49 49 48 48 48
30 29 30 31 31 32 33 33 34 35 36 36 37 38 35 36 37 37 38 40 41 41 41 42 42 43 43 44 45 45 46 47 47 47 48 49 50 50 50 51 51 51 51 51
31 31 32 32 33 33 34 34 36 37 38 39 38 41 39 38 38 39 40 40 41 41 42 42 43 44 44 45 46 46 47 47 48 48 49 49 50 50 50 51 51 52 52 52
32 32 33 33 33 34 35 36 37 39 40 41 40 42 41 39 39 40 41 41 41 42 43 43 44 44 44 45 46 46 47 48 48 49 49 49 50 50 50 51 52 52 53 53
33 33 33 34 34 35 36 37 39 40 41 42 41 43 42 40 40 40 41 41 42 43 43 43 44 44 45 45 46 47 47 48 48 48 49 50 50 50 51 51 52 52 53 53
34 34 34 35 36 37 37 38 39 42 43 43 43 43 41 41 41 42 42 42 42 43 43 43 44 44 45 45 45 46 47 48 48 48 49 49 50 50 51 52 52 51 51 52
35 35 35 35 36 37 38 39 40 42 44 45 44 43 42 41 42 42 43 43 43 43 44 44 44 44 44 45 45 46 47 47 48 48 49 49 49 50 51 51 51 51 52 52
36 37 37 37 38 38 39 39 40 41 43 45 45 43 42 41 42 43 43 43 44 44 44 44 44 44 45 45 45 46 47 47 48 48 49 49 49 50 51 51 50 51 51 51
38 39 39 39 39 39 39 40 41 42 43 44 45 44 43 43 43 43 44 44 44 44 44 44 45 45 46 46 46 46 46 47 47 48 49 49 49 50 50 51 51 50 50 50
38 39 40 40 40 40 40 41 41 42 43 44 46 45 43 43 44 44 45 45 45 45 44 44 44 45 45 46 46 47 47 47 48 48 49 50 50 50 51 51 51 50 50 49
38 40 40 40 40 40 41 41 41 42 44 44 45 44 44 45 45 45 46 46 45 45 44 44 44 44 45 46 47 47 48 48 48 49 50 51 51 51 52 51 51 51 50 49
40 40 40 40 40 41 41 40 41 42 43 44 44 43 43 44 45 46 46 46 45 44 44 44 44 45 46 47 47 48 49 49 50 51 51 52 51 51 51 51 51 50 49 48
41 41 41 40 40 41 42 41 41 42 43 45 44 43 42 43 44 45 45 45 45 44 44 45 45 45 46 47 48 48 49 50 51 51 51 51 51 51 51 50 49 48 48 47
40 40 40 40 40 41 41 41 41 42 42 43 43 42 42 42 43 43 44 44 44 45 45 45 45 45 45 46 47 48 49 50 50 51 50 50 50 50 49 48 46 46 46 46
39 39 40 40 40 41 41 40 40 41 41 42 43 42 41 42 42 43 43 43 44 44 45 44 45 46 46 46 47 47 48 49 49 48 48 48 48 47 46 45 45 45 45 45
38 39 40 41 41 42 41 40 40 41 41 42 42 42 43 43 43 43 44 44 44 45 45 45 45 45 46 46 47 48 48 48 48 47 46 46 45 45 44 44 43 43 43 43
37 38 40 41 42 42 40 40 40 41 41 41 42 42 43 43 43 43 44 45 45 45 45 45 45 45 45 46 46 47 47 47 46 46 45 45 44 44 43 43 42 42 41 41
37 38 39 41 42 42 40 40 41 42 42 41 42 43 43 43 43 43 44 44 44 45 45 44 45 45 45 45 46 46 45 45 44 44 43 43 43 43 42 42 41 41 40 39
36 37 38 39 41 41 41 41 41 41 42 42 42 42 43 43 43 43 44 44 44 44 44 44 45 45 45 46 45 45 44 44 43 43 43 42 42 41 41 40 40 39 38 37
37 38 38 38 40 40 40 40 41 41 42 42 43 43 43 43 43 43 43 43 44 44 44 44 44 44 44 45 44 44 43 42 42 42 41 41 40 40 39 39 38 37 36 35
37 37 37 38 39 39 39 40 41 41 42 42 42 42 43 43 43 43 43 43 43 43 43 43 43 43 43 43 42 42 41 40 39 39 39 39 39 38 38 37 36 35 35 34
36 36 37 37 38 38 39 40 41 42 42 42 42 42 42 42 42 43 42 42 42 42 42 42 42 42 41 41 41 40 39 38 37 37 37 37 37 37 36 36 35 34 33 32
37 37 38 37 37 38 39 40 41 42 42 42 42 42 42 42 42 42 42 42 41 42 42 41 40 39 39 39 38 38 37 37 36 36 36 36 36 35 34 34 33 33 32 32
37 37 38 38 38 39 39 40 41 42 42 41 41 41 41 41 41 41 41 41 41 40 40 39 38 38 38 37 37 37 36 35 35 35 35 35 34 34 33 32 31 31 31 32
Wind_Direction
271 272 273 274 273 274 273 273 273 274 273 273 275 276 278 278 278 279 280 282 283 284 285 285 284 284 284 283 282 281 280 280 278 277 276 275 275 274 274 273 273 274 275 275
273 273 273 274 275 275 276 275 275 275 275 276 277 277 278 279 279 280 281 283 284 285 285 285 285 284 284 283 283 282 282 281 279 278 277 275 276 276 275 273 273 273 274 274
273 274 274 274 275 276 276 276 276 277 277 277 278 277 279 280 281 282 283 284 284 285 286 286 285 285 284 283 283 283 283 282 280 278 277 276 276 275 275 275 274 273 273 274
274 274 274 275 276 277 276 277 278 278 279 279 279 280 279 280 282 283 284 284 285 286 286 286 286 286 284 283 283 283 283 282 281 280 279 278 277 277 276 275 274 273 273 273
275 275 274 275 276 277 278 279 279 280 280 280 281 281 281 281 283 284 284 285 286 286 286 287 286 285 285 284 283 283 283 283 283 282 282 281 280 279 278 277 274 274 273 273
276 276 275 276 277 278 279 279 280 280 280 280 282 283 284 285 285 284 284 285 286 286 286 287 286 286 285 285 284 284 283 283 283 283 283 282 281 280 279 279 277 275 275 274
277 277 276 277 277 278 279 280 281 281 281 282 283 283 285 286 285 285 285 286 286 287 288 287 286 286 286 286 285 285 285 285 285 284 284 284 283 282 281 280 279 277 276 275
279 278 278 278 279 280 280 281 282 283 284 284 284 285 287 287 287 286 287 288 288 288 288 288 287 286 286 286 286 285 285 286 286 286 286 286 285 284 283 282 280 278 277 276
279 278 278 279 280 280 281 281 283 283 284 285 286 287 287 288 288 287 288 288 289 289 289 288 287 286 286 287 286 286 286 286 287 287 287 287 287 286 285 284 282 279 277 276
279 278 278 279 279 280 281 283 283 284 285 286 287 288 290 289 288 288 289 289 289 289 289 287 286 286 286 287 287 286 286 287 288 288 287 287 287 287 286 284 283 282 280 278
278 278 279 279 280 282 282 283 283 283 284 286 288 289 291 290 289 289 289 290 290 290 288 287 287 287 287 287 287 286 287 287 288 289 288 287 287 287 286 284 283 281 280 278
279 279 279 279 280 281 282 284 284 284 284 285 287 289 290 289 289 289 289 289 289 289 288 287 288 288 288 288 288 288 288 288 288 289 289 288 288 287 286 285 284 281 280 279
279 279 280 281 282 283 284 285 284 284 284 284 285 289 290 289 289 289 289 289 289 288 288 288 288 289 289 288 288 289 288 289 289 289 289 289 288 288 287 285 284 282 281 279
278 278 280 282 284 285 285 285 284 284 285 285 286 288 289 289 289 289 289 289 288 288 288 289 289 289 289 289 289 289 289 290 290 290 290 289 289 288 287 285 284 282 281 279
278 278 280 281 282 283 284 284 284 285 286 287 288 288 290 289 290 290 290 289 289 289 289 289 289 290 290 290 290 291 291 290 290 290 290 290 289 288 288 286 284 281 280 279
278 279 280 281 282 283 284 284 285 286 287 288 289 290 290 290 290 290 290 290 290 290 290 291 291 292 292 292 292 292 292 292 291 291 291 290 289 289 288 287 285 282 281 280
278 280 281 281 281 283 283 286 286 287 288 289 289 290 290 290 290 290 290 291 291 291 291 292 292 292 292 292 293 293 293 293 292 292 292 291 291 290 289 287 285 283 282 280
279 280 282 282 282 283 286 286 286 287 288 289 290 290 291 292 291 291 291 292 293 292 292 292 292 292 292 292 292 293 294 294 293 293 293 293 292 291 289 287 286 285 283 281
280 282 283 284 284 285 285 287 288 288 289 290 291 291 291 292 292 292 292 292 293 294 293 293 292 292 292 292 293 293 294 294 294 294 294 293 293 292 290 289 287 286 286 284
281 282 283 284 284 286 288 288 289 289 290 291 292 292 292 293 292 292 293 293 293 294 293 293 293 292 292 293 294 294 294 294 294 294 294 294 294 293 292 291 289 288 287 285
281 283 283 284 285 287 289 289 291 290 292 292 292 293 293 293 293 293 293 294 294 294 294 294 295 294 293 293 294 294 294 294 294 294 295 295 295 294 293 292 290 288 287 285
282 284 285 286 286 288 290 290 291 292 292 292 293 293 294 294 294 295 294 294 294 294 294 294 295 294 295 295 295 294 294 294 294 294 294 295 295 294 293 292 291 289 287 285
283 285 286 287 288 289 289 290 291 292 292 292 293 293 293 293 294 295 294 294 294 294 294 294 295 295 296 296 296 295 294 293 294 295 296 296 296 295 294 292 290 289 288 285
283 284 286 288 289 289 288 289 290 291 292 293 293 294 293 294 294 294 294 294 294 295 295 295 296 296 296 296 296 296 295 295 295 295 296 297 297 297 296 293 291 289 287 286
286 286 287 288 289 288 288 290 290 291 292 293 294 293 293 293 294 294 294 295 295 296 295 295 296 296 296 296 297 296 295 295 295 296 297 297 296 296 296 295 292 290 287 286
286 287 287 288 288 289 289 291 292 292 293 294 294 294 293 293 294 294 294 295 295 296 296 295 296 296 296 297 297 297 296 296 296 297 297 297 296 296 296 295 294 292 290 287